N8SHA Weather Reports


Display with metric or nautical units.
time (UTC)temp
F
wind
direction
speed
MPH
gust
MPH
rain 1hr
in
rain 24hr
in
rain mn
in
humidity
%
barometer
mb
20240221145828 45 172 7.0 11.0 0.00 0.00 0.00 56 1017.5
20240221145327 45 169 2.0 7.0 0.00 0.00 0.00 56 1017.6
20240221144827 44 188 3.0 7.0 0.00 0.00 0.00 56 1017.6
20240221144325 44 203 3.0 7.0 0.00 0.00 0.00 56 1017.8
20240221143823 44 251 3.0 6.0 0.00 0.00 0.00 56 1017.7
20240221143323 44 246 0.0 7.0 0.00 0.00 0.00 56 1017.8
20240221142823 44 182 2.0 6.0 0.00 0.00 0.00 56 1018.0
20240221142322 43 162 0.0 8.0 0.00 0.00 0.00 57 1017.8
20240221141822 43 168 7.0 9.0 0.00 0.00 0.00 57 1018.1
20240221141320 43 199 2.0 10.0 0.00 0.00 0.00 57 1018.1
20240221140820 43 150 2.0 7.0 0.00 0.00 0.00 57 1017.9
20240221140319 43 215 2.0 9.0 0.00 0.00 0.00 56 1018.1
20240221135819 43 197 2.0 5.0 0.00 0.00 0.00 55 1018.0
20240221135319 43 163 1.0 12.0 0.00 0.00 0.00 57 1018.0
20240221134817 42 178 3.0 8.0 0.00 0.00 0.00 57 1018.1
20240221134316 42 241 2.0 8.0 0.00 0.00 0.00 58 1018.0
20240221133815 42 75 2.0 6.0 0.00 0.00 0.00 58 1017.9
20240221133314 42 216 1.0 10.0 0.00 0.00 0.00 59 1018.2
20240221132813 41 167 3.0 9.0 0.00 0.00 0.00 59 1018.0
20240221132312 41 162 2.0 7.0 0.00 0.00 0.00 60 1018.0
20240221131810 41 168 3.0 7.0 0.00 0.00 0.00 60 1018.1
20240221131308 41 262 2.0 11.0 0.00 0.00 0.00 60 1018.2
20240221130807 40 174 5.0 7.0 0.00 0.00 0.00 61 1018.3
20240221130305 40 207 0.0 8.0 0.00 0.00 0.00 61 1018.2
20240221125805 40 131 0.0 6.0 0.00 0.00 0.00 61 1018.3
20240221125306 40 155 1.0 11.0 0.00 0.00 0.00 61 1018.3
20240221124802 40 181 2.0 6.0 0.00 0.00 0.00 61 1018.4
20240221124300 41 177 3.0 9.0 0.00 0.00 0.00 61 1018.2
20240221123759 41 204 3.0 7.0 0.00 0.00 0.00 61 1018.3
20240221123258 41 164 2.0 5.0 0.00 0.00 0.00 61 1018.3
20240221122756 41 169 4.0 7.0 0.00 0.00 0.00 61 1018.3
20240221122254 41 192 3.0 10.0 0.00 0.00 0.00 61 1018.4
20240221121753 40 170 3.0 6.0 0.00 0.00 0.00 61 1018.3
20240221121252 40 171 2.0 8.0 0.00 0.00 0.00 62 1018.3
20240221120750 40 169 2.0 6.0 0.00 0.00 0.00 63 1018.2
20240221120250 40 214 3.0 8.0 0.00 0.00 0.00 63 1018.5
20240221115749 40 204 2.0 5.0 0.00 0.00 0.00 63 1018.6
20240221115249 39 189 3.0 8.0 0.00 0.00 0.00 64 1018.6
20240221114748 39 109 0.0 8.0 0.00 0.00 0.00 64 1018.5
20240221114247 39 117 2.0 9.0 0.00 0.00 0.00 64 1018.7
20240221113746 39 215 4.0 5.0 0.00 0.00 0.00 64 1018.8
20240221113245 39 273 2.0 6.0 0.00 0.00 0.00 65 1018.9
20240221112744 39 98 1.0 4.0 0.00 0.00 0.00 65 1018.8
20240221112243 39 150 0.0 5.0 0.00 0.00 0.00 66 1019.0
20240221111741 39 151 3.0 4.0 0.00 0.00 0.00 65 1018.9
20240221111241 38 171 1.0 4.0 0.00 0.00 0.00 66 1018.8
20240221110740 38 174 1.0 7.0 0.00 0.00 0.00 66 1018.9
20240221110238 37 174 3.0 6.0 0.00 0.00 0.00 67 1018.8
20240221105737 37 60 2.0 4.0 0.00 0.00 0.00 67 1018.8
20240221105235 37 151 2.0 4.0 0.00 0.00 0.00 67 1018.9
20240221104734 38 136 1.0 6.0 0.00 0.00 0.00 67 1019.0
20240221104233 38 153 2.0 7.0 0.00 0.00 0.00 66 1019.0
20240221103731 38 211 4.0 6.0 0.00 0.00 0.00 66 1018.8
20240221103230 38 154 3.0 6.0 0.00 0.00 0.00 66 1019.0
20240221102728 38 218 3.0 6.0 0.00 0.00 0.00 66 1019.1
20240221102226 38 57 3.0 5.0 0.00 0.00 0.00 66 1019.1
20240221101726 38 317 3.0 5.0 0.00 0.00 0.00 65 1019.1
20240221101225 39 350 0.0 8.0 0.00 0.00 0.00 64 1019.0
20240221100725 39 177 2.0 9.0 0.00 0.00 0.00 64 1019.1
20240221100223 39 162 3.0 7.0 0.00 0.00 0.00 64 1019.1
20240221095721 39 159 3.0 7.0 0.00 0.00 0.00 64 1019.1
20240221095219 39 165 4.0 6.0 0.00 0.00 0.00 64 1019.0
20240221094718 39 156 3.0 7.0 0.00 0.00 0.00 64 1019.2
20240221094218 39 293 4.0 9.0 0.00 0.00 0.00 64 1019.3
20240221093717 39 124 3.0 7.0 0.00 0.00 0.00 64 1019.2
20240221093216 39 148 3.0 7.0 0.00 0.00 0.00 64 1019.1
20240221092716 38 170 3.0 6.0 0.00 0.00 0.00 65 1019.3
20240221092214 38 144 3.0 9.0 0.00 0.00 0.00 65 1019.3
20240221091712 39 315 3.0 5.0 0.00 0.00 0.00 65 1019.3
20240221091211 39 170 3.0 5.0 0.00 0.00 0.00 64 1019.2
20240221090710 39 109 2.0 5.0 0.00 0.00 0.00 64 1019.4
20240221090207 39 205 2.0 6.0 0.00 0.00 0.00 64 1019.6
20240221085707 39 144 3.0 6.0 0.00 0.00 0.00 63 1019.7
20240221085205 39 140 3.0 6.0 0.00 0.00 0.00 64 1019.4
20240221084703 39 170 3.0 7.0 0.00 0.00 0.00 63 1019.6
20240221084201 39 193 3.0 11.0 0.00 0.00 0.00 64 1019.8
20240221083700 39 27 2.0 6.0 0.00 0.00 0.00 64 1019.8
20240221083159 39 275 2.0 7.0 0.00 0.00 0.00 64 1019.8
20240221082658 38 158 2.0 6.0 0.00 0.00 0.00 65 1019.8
20240221082156 38 155 1.0 4.0 0.00 0.00 0.00 66 1019.7
20240221081654 38 144 3.0 4.0 0.00 0.00 0.00 65 1019.6
20240221081152 38 125 2.0 5.0 0.00 0.00 0.00 66 1019.9
20240221080651 38 170 3.0 7.0 0.00 0.00 0.00 67 1020.0
20240221080150 37 107 2.0 5.0 0.00 0.00 0.00 67 1020.0
20240221075649 37 47 0.0 4.0 0.00 0.00 0.00 67 1020.1
20240221075148 37 131 2.0 3.0 0.00 0.00 0.00 67 1020.1
20240221074645 37 81 1.0 5.0 0.00 0.00 0.00 68 1020.0
20240221074143 37 123 0.0 3.0 0.00 0.00 0.00 69 1020.2
20240221073641 37 126 2.0 5.0 0.00 0.00 0.00 69 1020.1
20240221073140 37 102 1.0 3.0 0.00 0.00 0.00 69 1020.1
20240221072639 37 150 2.0 3.0 0.00 0.00 0.00 68 1020.1
20240221072137 37 142 0.0 3.0 0.00 0.00 0.00 68 1020.2
20240221071636 37 135 0.0 4.0 0.00 0.00 0.00 68 1020.4
20240221071134 37 126 0.0 5.0 0.00 0.00 0.00 68 1020.4
20240221070634 37 346 0.0 3.0 0.00 0.00 0.00 69 1020.3
20240221070131 37 159 3.0 4.0 0.00 0.00 0.00 68 1020.6
20240221065631 37 153 2.0 4.0 0.00 0.00 0.00 69 1020.4
20240221065129 37 142 2.0 3.0 0.00 0.00 0.00 68 1020.6
20240221064628 37 147 3.0 5.0 0.00 0.00 0.00 68 1020.6
20240221064129 37 161 3.0 6.0 0.00 0.00 0.00 69 1020.7
20240221063628 37 164 5.0 6.0 0.00 0.00 0.00 69 1020.7
20240221063128 37 182 2.0 5.0 0.00 0.00 0.00 69 1020.7
20240221062628 37 133 1.0 4.0 0.00 0.00 0.00 69 1020.9
20240221062127 37 79 2.0 5.0 0.00 0.00 0.00 69 1021.1
20240221061625 36 99 2.0 4.0 0.00 0.00 0.00 70 1020.7
20240221061125 36 138 2.0 4.0 0.00 0.00 0.00 70 1021.0
20240221060625 36 154 3.0 5.0 0.00 0.00 0.00 70 1021.1
20240221060124 36 146 3.0 6.0 0.00 0.00 0.00 70 1021.1
20240221055623 36 162 2.0 4.0 0.00 0.00 0.00 71 1021.2
20240221055123 36 111 3.0 4.0 0.00 0.00 0.00 71 1021.1
20240221054622 36 121 0.0 4.0 0.00 0.00 0.00 70 1021.1
20240221054122 36 133 0.0 5.0 0.00 0.00 0.00 70 1021.2
20240221053621 36 39 2.0 4.0 0.00 0.00 0.00 70 1021.2
20240221053120 36 102 2.0 3.0 0.00 0.00 0.00 70 1021.2
20240221052621 36 182 1.0 6.0 0.00 0.00 0.00 70 1021.3
20240221052120 37 177 2.0 3.0 0.00 0.00 0.00 68 1021.3
20240221051621 37 59 2.0 3.0 0.00 0.00 0.00 67 1021.4
20240221051120 37 127 2.0 4.0 0.00 0.00 0.00 67 1021.5
20240221050621 37 150 2.0 5.0 0.00 0.00 0.00 66 1021.5
20240221050120 37 132 0.0 4.0 0.00 0.00 0.00 67 1021.3
20240221045619 37 164 2.0 6.0 0.00 0.00 0.00 67 1021.5
20240221045118 37 143 4.0 5.0 0.00 0.00 0.00 68 1021.5
20240221044617 36 129 2.0 4.0 0.00 0.00 0.00 69 1021.6
20240221044116 36 162 2.0 7.0 0.00 0.00 0.00 69 1021.7
20240221043614 36 96 3.0 4.0 0.00 0.00 0.00 69 1021.8
20240221043114 35 148 2.0 7.0 0.00 0.00 0.00 69 1021.9
20240221042614 36 66 3.0 5.0 0.00 0.00 0.00 68 1021.8
20240221042112 36 73 2.0 5.0 0.00 0.00 0.00 68 1021.7
20240221041611 36 298 2.0 5.0 0.00 0.00 0.00 68 1021.8
20240221041110 36 183 1.0 4.0 0.00 0.00 0.00 68 1021.8
20240221040610 35 116 0.0 4.0 0.00 0.00 0.00 68 1022.1
20240221040108 35 349 2.0 5.0 0.00 0.00 0.00 69 1022.0
20240221035608 35 72 0.0 8.0 0.00 0.00 0.00 69 1022.2
20240221035107 35 126 0.0 3.0 0.00 0.00 0.00 69 1022.2
20240221034605 35 131 2.0 4.0 0.00 0.00 0.00 69 1022.0
20240221034103 35 103 1.0 4.0 0.00 0.00 0.00 69 1022.3
20240221033603 36 71 2.0 3.0 0.00 0.00 0.00 68 1022.2
20240221033101 36 60 1.0 5.0 0.00 0.00 0.00 67 1022.3
20240221032601 35 125 2.0 4.0 0.00 0.00 0.00 68 1022.4
20240221032059 36 53 3.0 4.0 0.00 0.00 0.00 68 1022.3
20240221031559 36 313 0.0 4.0 0.00 0.00 0.00 68 1022.3
20240221031059 36 99 3.0 3.0 0.00 0.00 0.00 68 1022.3
20240221030557 36 88 2.0 5.0 0.00 0.00 0.00 67 1022.3
20240221030056 36 318 3.0 4.0 0.00 0.00 0.00 68 1022.2
20240221025554 36 347 3.0 4.0 0.00 0.00 0.00 68 1022.4
20240221025055 36 19 2.0 7.0 0.00 0.00 0.00 67 1022.4
20240221024554 36 74 2.0 3.0 0.00 0.00 0.00 68 1022.5
20240221024052 36 143 3.0 7.0 0.00 0.00 0.00 67 1022.2
20240221023551 36 358 2.0 6.0 0.00 0.00 0.00 67 1022.3
20240221023050 36 102 1.0 4.0 0.00 0.00 0.00 67 1022.5
20240221022549 36 65 0.0 3.0 0.00 0.00 0.00 66 1022.6
20240221022048 36 83 2.0 4.0 0.00 0.00 0.00 66 1022.6
20240221021548 37 14 0.0 5.0 0.00 0.00 0.00 65 1022.5
20240221021046 37 146 2.0 4.0 0.00 0.00 0.00 66 1022.5
20240221020545 37 333 3.0 6.0 0.00 0.00 0.00 65 1022.6
20240221020042 37 155 2.0 4.0 0.00 0.00 0.00 65 1022.7
20240221015541 37 24 2.0 3.0 0.00 0.00 0.00 65 1022.7
20240221015040 37 77 2.0 2.0 0.00 0.00 0.00 64 1022.7
20240221014541 37 74 0.0 4.0 0.00 0.00 0.00 64 1022.6
20240221014040 38 55 3.0 4.0 0.00 0.00 0.00 63 1022.6
20240221013538 38 57 2.0 4.0 0.00 0.00 0.00 64 1022.9
20240221013037 38 75 3.0 3.0 0.00 0.00 0.00 64 1022.8
20240221012536 38 163 3.0 4.0 0.00 0.00 0.00 64 1022.9
20240221012035 37 86 1.0 4.0 0.00 0.00 0.00 65 1022.8
20240221011531 37 106 3.0 3.0 0.00 0.00 0.00 65 1022.9
20240221011030 37 174 1.0 3.0 0.00 0.00 0.00 65 1022.8
20240221010530 38 36 1.0 3.0 0.00 0.00 0.00 65 1022.7
20240221010029 38 83 1.0 3.0 0.00 0.00 0.00 64 1022.6
20240221005527 38 69 1.0 2.0 0.00 0.00 0.00 63 1022.8
20240221005026 39 107 0.0 4.0 0.00 0.00 0.00 63 1022.7
20240221004526 39 54 0.0 4.0 0.00 0.00 0.00 62 1022.8
20240221004025 38 25 1.0 3.0 0.00 0.00 0.00 63 1022.7
20240221003525 38 56 1.0 3.0 0.00 0.00 0.00 64 1022.8
20240221003024 38 68 0.0 2.0 0.00 0.00 0.00 64 1022.7
20240221002523 38 67 0.0 3.0 0.00 0.00 0.00 64 1022.8
20240221002022 38 99 2.0 5.0 0.00 0.00 0.00 63 1022.8
20240221001522 38 84 2.0 3.0 0.00 0.00 0.00 64 1022.6
20240221001020 39 100 0.0 3.0 0.00 0.00 0.00 63 1022.8
20240221000518 39 3 1.0 2.0 0.00 0.00 0.00 62 1022.7
20240221000017 39 77 1.0 3.0 0.00 0.00 0.00 62 1022.6
20240220235515 39 32 2.0 3.0 0.00 0.00 0.00 62 1022.5
20240220235014 39 61 2.0 3.0 0.00 0.00 0.00 61 1022.5
20240220234512 39 88 2.0 3.0 0.00 0.00 0.00 60 1022.5
20240220234011 39 112 2.0 3.0 0.00 0.00 0.00 60 1022.4
20240220233509 39 100 2.0 3.0 0.00 0.00 0.00 60 1022.3
20240220233008 40 103 0.0 2.0 0.00 0.00 0.00 59 1022.2
20240220232506 40 47 1.0 3.0 0.00 0.00 0.00 58 1022.3
20240220232005 41 73 1.0 2.0 0.00 0.00 0.00 56 1022.1
20240220231503 41 260 0.0 2.0 0.00 0.00 0.00 56 1022.3
20240220231003 42 74 2.0 2.0 0.00 0.00 0.00 54 1022.1
20240220230503 43 72 1.0 5.0 0.00 0.00 0.00 52 1022.2
20240220230002 43 81 1.0 4.0 0.00 0.00 0.00 52 1022.4
20240220225502 44 92 2.0 4.0 0.00 0.00 0.00 51 1022.2
20240220225000 44 69 2.0 3.0 0.00 0.00 0.00 49 1022.2
20240220224458 44 122 0.0 2.0 0.00 0.00 0.00 48 1022.0
20240220223957 45 131 0.0 4.0 0.00 0.00 0.00 47 1022.3
20240220223455 45 293 0.0 2.0 0.00 0.00 0.00 47 1022.4
20240220222954 46 33 1.0 5.0 0.00 0.00 0.00 46 1022.2
20240220222454 46 136 2.0 4.0 0.00 0.00 0.00 46 1022.2
20240220221952 46 77 2.0 3.0 0.00 0.00 0.00 46 1022.3
20240220221451 46 138 1.0 3.0 0.00 0.00 0.00 45 1022.2
20240220220951 46 333 2.0 4.0 0.00 0.00 0.00 45 1022.2
20240220220450 47 177 2.0 5.0 0.00 0.00 0.00 45 1022.3
20240220215948 47 115 0.0 4.0 0.00 0.00 0.00 45 1022.2
20240220215446 47 301 2.0 7.0 0.00 0.00 0.00 45 1022.1
20240220214944 47 112 2.0 5.0 0.00 0.00 0.00 44 1022.3
20240220214444 47 182 2.0 7.0 0.00 0.00 0.00 44 1022.3
20240220213943 48 151 2.0 7.0 0.00 0.00 0.00 43 1022.3
20240220213441 49 224 1.0 4.0 0.00 0.00 0.00 41 1022.3
20240220212940 50 292 1.0 6.0 0.00 0.00 0.00 40 1022.4
20240220212410 50 79 0.0 8.0 0.00 0.00 0.00 40 1022.5
20240220211909 50 308 1.0 6.0 0.00 0.00 0.00 40 1022.5
20240220211408 50 209 2.0 8.0 0.00 0.00 0.00 40 1022.4
20240220210907 51 161 1.0 6.0 0.00 0.00 0.00 40 1022.4
20240220210406 51 232 2.0 9.0 0.00 0.00 0.00 39 1022.4
20240220205905 52 275 2.0 5.0 0.00 0.00 0.00 38 1022.4
20240220205403 51 169 2.0 6.0 0.00 0.00 0.00 38 1022.5
20240220204902 52 220 3.0 4.0 0.00 0.00 0.00 38 1022.4
20240220204400 51 143 2.0 7.0 0.00 0.00 0.00 39 1022.4
20240220203858 51 63 1.0 3.0 0.00 0.00 0.00 41 1022.5
20240220203357 50 34 0.0 6.0 0.00 0.00 0.00 43 1022.5
20240220202857 50 59 7.0 11.0 0.00 0.00 0.00 41 1022.7
20240220202355 51 166 2.0 5.0 0.00 0.00 0.00 40 1022.8
20240220201853 50 165 3.0 7.0 0.00 0.00 0.00 40 1022.7
20240220201353 50 338 2.0 4.0 0.00 0.00 0.00 39 1022.7
20240220200852 50 225 3.0 8.0 0.00 0.00 0.00 40 1022.8
20240220200349 50 152 1.0 6.0 0.00 0.00 0.00 42 1022.9
20240220195848 50 296 3.0 6.0 0.00 0.00 0.00 40 1022.8
20240220195346 51 247 1.0 5.0 0.00 0.00 0.00 40 1023.0
20240220194845 50 108 3.0 5.0 0.00 0.00 0.00 43 1023.0
20240220194341 50 251 0.0 6.0 0.00 0.00 0.00 40 1023.1
20240220193838 50 187 3.0 6.0 0.00 0.00 0.00 41 1023.1
20240220193337 50 235 4.0 9.0 0.00 0.00 0.00 39 1023.1
20240220192835 50 228 3.0 8.0 0.00 0.00 0.00 41 1023.3
20240220192334 49 291 2.0 7.0 0.00 0.00 0.00 42 1023.4
20240220191832 49 183 2.0 6.0 0.00 0.00 0.00 42 1023.4
20240220191331 50 20 0.0 5.0 0.00 0.00 0.00 42 1023.5
20240220190830 48 144 3.0 8.0 0.00 0.00 0.00 45 1023.4
20240220190329 49 54 2.0 9.0 0.00 0.00 0.00 45 1023.4
20240220185827 50 44 2.0 5.0 0.00 0.00 0.00 41 1023.5
20240220185327 49 227 6.0 8.0 0.00 0.00 0.00 40 1023.5
20240220184826 49 114 2.0 5.0 0.00 0.00 0.00 41 1023.6
20240220184325 50 132 2.0 5.0 0.00 0.00 0.00 42 1024.1
20240220183824 49 341 6.0 7.0 0.00 0.00 0.00 42 1023.9
20240220183324 49 126 0.0 6.0 0.00 0.00 0.00 44 1023.9
20240220182822 48 162 3.0 7.0 0.00 0.00 0.00 42 1023.9
20240220182322 47 165 2.0 7.0 0.00 0.00 0.00 45 1024.1
20240220181820 47 32 0.0 6.0 0.00 0.00 0.00 47 1024.2
20240220181319 47 140 1.0 8.0 0.00 0.00 0.00 48 1024.2
20240220180818 48 55 0.0 4.0 0.00 0.00 0.00 46 1024.5
20240220180318 47 5 2.0 6.0 0.00 0.00 0.00 47 1024.6
20240220175817 46 133 1.0 5.0 0.00 0.00 0.00 50 1024.5
20240220175317 46 180 2.0 9.0 0.00 0.00 0.00 48 1024.6
20240220174816 46 196 0.0 5.0 0.00 0.00 0.00 48 1024.8
20240220174315 45 103 3.0 6.0 0.00 0.00 0.00 50 1024.9
20240220173814 45 135 2.0 6.0 0.00 0.00 0.00 50 1025.1
20240220173312 45 153 2.0 5.0 0.00 0.00 0.00 50 1025.2
20240220172812 45 259 4.0 8.0 0.00 0.00 0.00 51 1025.4
20240220172311 45 166 2.0 8.0 0.00 0.00 0.00 51 1025.4
20240220171811 44 180 0.0 5.0 0.00 0.00 0.00 53 1025.2
20240220171310 43 187 0.0 6.0 0.00 0.00 0.00 56 1025.5
20240220170809 42 25 2.0 4.0 0.00 0.00 0.00 56 1025.5
20240220170307 42 160 2.0 5.0 0.00 0.00 0.00 55 1025.5
20240220165807 42 93 2.0 6.0 0.00 0.00 0.00 55 1025.4
20240220165306 43 47 2.0 5.0 0.00 0.00 0.00 55 1025.4
20240220164804 43 82 1.0 4.0 0.00 0.00 0.00 57 1025.5
20240220164304 42 164 3.0 6.0 0.00 0.00 0.00 57 1025.6
20240220163803 42 202 2.0 6.0 0.00 0.00 0.00 57 1025.9
20240220163256 42 157 3.0 6.0 0.00 0.00 0.00 56 1025.8
20240220162755 43 300 2.0 5.0 0.00 0.00 0.00 55 1025.8
20240220162253 42 100 3.0 5.0 0.00 0.00 0.00 57 1025.7
20240220161752 41 173 4.0 8.0 0.00 0.00 0.00 56 1025.8
20240220161251 41 206 3.0 7.0 0.00 0.00 0.00 58 1025.6
20240220160750 40 156 3.0 7.0 0.00 0.00 0.00 58 1025.8
20240220160249 41 338 2.0 7.0 0.00 0.00 0.00 57 1025.9
20240220155749 40 160 2.0 6.0 0.00 0.00 0.00 58 1025.8
20240220155248 40 23 3.0 7.0 0.00 0.00 0.00 60 1025.9
20240220154748 38 200 4.0 7.0 0.00 0.00 0.00 66 1025.7
20240220154246 37 5 2.0 5.0 0.00 0.00 0.00 71 1025.7
20240220153745 37 182 0.0 5.0 0.00 0.00 0.00 73 1025.8
20240220153245 36 76 2.0 4.0 0.00 0.00 0.00 75 1025.8
20240220152744 35 50 2.0 3.0 0.00 0.00 0.00 76 1025.9
20240220152243 35 19 0.0 3.0 0.00 0.00 0.00 77 1025.7
20240220151743 35 94 2.0 4.0 0.00 0.00 0.00 78 1025.9
20240220151241 34 94 2.0 5.0 0.00 0.00 0.00 79 1025.7
20240220150740 33 158 2.0 5.0 0.00 0.00 0.00 82 1025.8
20240220150240 33 146 2.0 5.0 0.00 0.00 0.00 85 1025.8